Flag for Norway Weather past 2 weeks in Gjøvik, Norway

Now
26 °F

Chilly.


Feels Like: 26 °F
Forecast: 21 / 41 °F
Wind: 2 mph from Northeast

Location: Lillehammer-Saetherengen

Current Time: Mar 31, 2015 at 5:02:11 AM

Latest Report: Mar 31, 2015 at 4:00 AM


Visibility: N/A

Pressure: 29.03 "Hg

Humidity: 93%

Dew point: 24 °F

Location of GjøvikLocation

Historic Weather in Gjøvik — Graph

°F

Gjøvik temperature yesterday

Maximum temperature yesterday: 41 °F (at 4:00 PM)
Minimum temperature yesterday: 30 °F (at 11:00 PM)
Average temperature yesterday: 35 °F

Past Weeks' High & Low Weather Summary

 TemperatureHumidityPressure
High56 °F (Mar 23, 3:00 PM)97% (Mar 19, 6:00 AM)30.88 "Hg (Mar 19, 6:00 AM)
Low22 °F (Mar 28, 8:00 AM)28% (Mar 21, 5:00 PM)28.97 "Hg (Mar 30, 12:00 AM)
Average33 °F78%29.96 "Hg
* Reported Mar 16 2:00 AM — Mar 31 3:00 AM, Gjøvik, Weather by CustomWeather, © 2015

Note: Actual official high and low records may vary slightly from our data, if they occured in-between our weather recording intervals... More about our weather records

Advertising

Gjøvik weather history for previous 24 hours

 ConditionsComfort  
Time TempWeatherWind HumidityBarometerVisibility
3:00 AM
Tue, Mar 31
28 °FChilly.2 mph94%29.06 "HgN/A
2:00 AM28 °FChilly.1 mph94%29.06 "HgN/A
1:00 AM30 °FChilly.1 mph95%29.06 "HgN/A
12:00 AM29 °FChilly.1 mph95%29.09 "HgN/A
11:00 PM
Mon, Mar 30
30 °FChilly.1 mph93%29.09 "HgN/A
10:00 PM32 °FChilly.1 mph90%29.12 "HgN/A
9:00 PM35 °FChilly.2 mph82%29.12 "HgN/A
8:00 PM37 °FChilly.1 mph75%29.12 "HgN/A
7:00 PM40 °FQuite cool.2 mph71%29.12 "HgN/A
6:00 PM40 °FQuite cool.2 mph68%29.09 "HgN/A
5:00 PM41 °FQuite cool.2 mph66%29.09 "HgN/A
4:00 PM41 °FQuite cool.3 mph67%29.09 "HgN/A
3:00 PM40 °FQuite cool.3 mph70%29.09 "HgN/A
2:00 PM38 °FChilly.3 mph75%29.09 "HgN/A
1:00 PM37 °FChilly.3 mph79%29.09 "HgN/A
12:00 PM36 °FChilly.3 mph81%29.06 "HgN/A
11:00 AM35 °FChilly.3 mph84%29.06 "HgN/A
10:00 AM33 °FChilly.2 mph91%29.03 "HgN/A
9:00 AM33 °FChilly.2 mph92%29.03 "HgN/A
8:00 AM32 °FChilly.1 mph93%29.03 "HgN/A
7:00 AM32 °FChilly.1 mph94%29.00 "HgN/A
6:00 AM32 °FChilly.1 mph93%29.00 "HgN/A
5:00 AM33 °FChilly.2 mph93%28.97 "HgN/A
Weather by CustomWeather, © 2015

See weather overviewHow to use our weather pages